EW1998 Weather Reports


time (UTC)temp
C
wind
direction
speed
KPH
gust
KPH
rain 1hr
cm
rain 24hr
cm
rain mn
cm
humidity
%
barometer
mb
20260506001430 0 141 0.0 3.2 0.00 0.00 0.00 76 1012.8
20260505235925 0 238 0.0 3.2 0.00 0.00 0.00 76 1012.8
20260505234416 0 283 0.0 3.2 0.00 0.00 0.00 72 1012.9
20260505232905 0 37 0.0 3.2 0.00 0.00 0.00 69 1012.8
20260505232102 1 230 0.0 4.8 0.00 0.00 0.00 66 1012.8
20260505231612 1 230 0.0 4.8 0.00 0.00 0.00 66 1012.8
20260505230603 1 67 3.2 6.4 0.00 0.00 0.00 64 1012.7
20260505225901 1 67 3.2 6.4 0.00 0.00 0.00 64 1012.7
20260505225104 2 219 0.0 4.8 0.00 0.00 0.00 62 1012.5
20260505224358 2 219 0.0 4.8 0.00 0.00 0.00 62 1012.5
20260505223520 2 206 3.2 4.8 0.00 0.00 0.00 59 1012.5
20260505223040 2 206 3.2 4.8 0.00 0.00 0.00 59 1012.5
20260505221335 3 208 0.0 6.4 0.00 0.00 0.00 57 1012.6
20260505215802 4 129 0.0 8.0 0.00 0.00 0.00 54 1012.5
20260505214301 5 272 0.0 12.9 0.00 0.00 0.00 48 1012.4
20260505213505 5 115 0.0 8.0 0.00 0.00 0.00 50 1012.5
20260505212804 5 115 0.0 8.0 0.00 0.00 0.00 50 1012.5
20260505211301 5 179 3.2 6.4 0.00 0.00 0.00 48 1012.2
20260505210725 5 283 0.0 11.3 0.00 0.00 0.00 48 1012.1
20260505210456 5 283 0.0 11.3 0.00 0.00 0.00 48 1012.1
20260505205008 6 15 3.2 11.3 0.00 0.00 0.00 48 1012.0
20260505204254 6 15 3.2 11.3 0.00 0.00 0.00 48 1012.0
20260505203441 6 51 1.6 12.9 0.00 0.00 0.00 48 1011.7
20260505202952 6 51 1.6 12.9 0.00 0.00 0.00 48 1011.7
20260505201230 6 10 3.2 16.1 0.00 0.00 0.00 46 1011.5
20260505200439 5 316 0.0 3.2 0.00 0.00 0.00 52 1011.4
20260505195729 5 316 0.0 3.2 0.00 0.00 0.00 52 1011.4
20260505194925 6 129 0.0 9.7 0.00 0.00 0.00 45 1011.2
20260505194443 6 129 0.0 9.7 0.00 0.00 0.00 45 1011.2
20260505193242 7 324 4.8 14.5 0.00 0.00 0.00 41 1010.8
20260505192813 7 295 3.2 12.9 0.00 0.00 0.00 42 1010.9
20260505191202 7 324 4.8 14.5 0.00 0.00 0.00 41 1010.8
20260505185703 8 331 3.2 14.5 0.00 0.00 0.00 40 1010.6
20260505184857 8 329 6.4 14.5 0.00 0.00 0.00 40 1010.4
20260505184414 8 329 6.4 14.5 0.00 0.00 0.00 40 1010.4
20260505183411 8 298 3.2 17.7 0.00 0.00 0.00 39 1010.3
20260505182705 8 298 3.2 17.7 0.00 0.00 0.00 39 1010.3
20260505181202 10 293 3.2 17.7 0.00 0.00 0.00 36 1010.2
20260505175701 10 305 4.8 14.5 0.00 0.00 0.00 34 1010.1
20260505174202 10 353 3.2 20.9 0.00 0.00 0.00 34 1010.1
20260505173424 9 346 6.4 14.5 0.00 0.00 0.00 36 1010.0
20260505172659 9 346 6.4 14.5 0.00 0.00 0.00 36 1010.0
20260505171846 10 3 3.2 17.7 0.00 0.00 0.00 31 1009.9
20260505171403 10 3 3.2 17.7 0.00 0.00 0.00 31 1009.9
20260505170339 10 336 4.8 22.5 0.00 0.00 0.00 31 1009.8
20260505165630 10 336 4.8 22.5 0.00 0.00 0.00 31 1009.8
20260505164131 10 268 3.2 16.1 0.00 0.00 0.00 31 1009.9
20260505162602 11 353 4.8 19.3 0.00 0.00 0.00 29 1009.8
20260505161102 11 272 4.8 17.7 0.00 0.00 0.00 27 1009.9
20260505152530 12 272 8.0 20.9 0.00 0.00 0.00 26 1009.7
20260505151030 11 303 6.4 17.7 0.00 0.00 0.00 26 1009.7
20260505123929 12 306 4.8 19.3 0.00 0.00 0.00 27 1009.6
20260505122434 12 257 8.0 19.3 0.00 0.00 0.00 27 1009.6
20260505120930 11 313 11.3 20.9 0.00 0.00 0.00 28 1009.6
20260505115429 11 259 17.7 19.3 0.00 0.00 0.00 28 1009.5
20260505114616 12 248 9.7 20.9 0.00 0.00 0.00 28 1009.5
20260505113915 12 248 9.7 20.9 0.00 0.00 0.00 28 1009.5
20260505112402 11 344 4.8 17.7 0.00 0.00 0.00 29 1009.5
20260505111551 11 307 3.2 19.3 0.00 0.00 0.00 30 1009.7
20260505111103 11 307 3.2 19.3 0.00 0.00 0.00 30 1009.7
20260505102210 9 269 8.0 20.9 0.00 0.00 0.00 31 1010.1
20260505101025 9 269 8.0 20.9 0.00 0.00 0.00 31 1010.1
20260505095305 10 277 4.8 20.9 0.00 0.00 0.00 31 1010.0
20260505094503 10 253 4.8 16.1 0.00 0.00 0.00 30 1010.1
20260505093803 10 253 4.8 16.1 0.00 0.00 0.00 30 1010.1
20260505092301 10 315 0.0 16.1 0.00 0.00 0.00 34 1010.0
20260505090802 10 285 6.4 14.5 0.00 0.00 0.00 32 1010.1
20260505090005 10 336 6.4 14.5 0.00 0.00 0.00 36 1010.0
20260505085301 10 336 6.4 14.5 0.00 0.00 0.00 36 1010.0
20260505083802 8 277 8.0 20.9 0.00 0.00 0.00 35 1010.1
20260505082304 8 340 3.2 22.5 0.00 0.00 0.00 35 1010.2
20260505080801 7 297 11.3 19.3 0.00 0.00 0.00 38 1010.2
20260505075959 8 17 4.8 12.9 0.00 0.00 0.00 39 1010.2
20260505075304 8 17 4.8 12.9 0.00 0.00 0.00 39 1010.2
20260505075145 7 269 4.8 14.5 0.00 0.00 0.00 38 1010.3
20260505074006 7 269 4.8 14.5 0.00 0.00 0.00 38 1010.3
20260505072230 8 340 9.7 16.1 0.00 0.00 0.00 40 1010.2
20260505070731 7 344 8.0 12.9 0.00 0.00 0.00 44 1010.2
20260505065927 6 269 0.0 9.7 0.00 0.00 0.00 45 1010.2
20260505065221 6 269 0.0 9.7 0.00 0.00 0.00 45 1010.2
20260505063701 7 269 0.0 11.3 0.00 0.00 0.00 43 1010.4
20260505062202 6 141 3.2 8.0 0.00 0.00 0.00 45 1010.2
20260505061348 5 143 3.2 6.4 0.00 0.00 0.00 50 1010.2
20260505060906 5 143 3.2 6.4 0.00 0.00 0.00 50 1010.2
20260505055858 6 233 3.2 4.8 0.00 0.00 0.00 51 1010.3
20260505055146 6 233 3.2 4.8 0.00 0.00 0.00 51 1010.3
20260505053630 5 193 0.0 3.2 0.00 0.00 0.00 55 1010.3
20260505052810 3 9 3.2 4.8 0.00 0.00 0.00 63 1010.1
20260505052115 3 9 3.2 4.8 0.00 0.00 0.00 63 1010.1
20260505050603 1 107 0.0 3.2 0.00 0.00 0.00 70 1010.0
20260505040530 -1 224 0.0 3.2 0.00 0.00 0.00 77 1009.7
20260505035030 -1 250 0.0 3.2 0.00 0.00 0.00 80 1009.5
20260505034227 -1 217 0.0 3.2 0.00 0.00 0.00 76 1009.5
20260505033741 -1 217 0.0 3.2 0.00 0.00 0.00 76 1009.5
20260505032030 -1 221 0.0 3.2 0.00 0.00 0.00 74 1009.6
20260505031225 -1 309 0.0 3.2 0.00 0.00 0.00 74 1009.5
20260505030743 -1 309 0.0 3.2 0.00 0.00 0.00 74 1009.5
20260505030324 0 212 0.0 3.2 0.00 0.00 0.00 71 1009.3
20260505025147 0 88 0.0 3.2 0.00 0.00 0.00 72 1009.3
20260505023529 0 212 0.0 3.2 0.00 0.00 0.00 71 1009.3
20260505022002 0 217 0.0 3.2 0.00 0.00 0.00 69 1009.2
20260505021911 0 13 0.0 3.2 0.00 0.00 0.00 69 1009.1
20260505020505 0 13 0.0 3.2 0.00 0.00 0.00 69 1009.1
20260505015001 1 217 0.0 3.2 0.00 0.00 0.00 66 1009.1
20260505014210 2 126 0.0 6.4 0.00 0.00 0.00 56 1008.9
20260505013502 2 126 0.0 6.4 0.00 0.00 0.00 56 1008.9
20260505012002 3 212 0.0 17.7 0.00 0.00 0.00 49 1008.7
20260505010504 3 284 8.0 16.1 0.00 0.00 0.00 49 1008.4
20260505005701 4 353 4.8 19.3 0.00 0.00 0.00 48 1008.5
20260505005001 4 353 4.8 19.3 0.00 0.00 0.00 48 1008.5
20260505004211 4 254 3.2 16.1 0.00 0.00 0.00 48 1008.5
20260505003501 4 254 3.2 16.1 0.00 0.00 0.00 48 1008.5
20260505002707 4 328 3.2 16.1 0.00 0.00 0.00 48 1008.3